Volver al catálogo

WESTFORD NEEDLES

ActivoPO
NORAD 19109·DEBRIS·🇺🇸 United States

Lanzado May 9, 1963 desde Vandenberg Space Force Base

Loading…

Próximos Pases (próximas 24 horas)

TLE

ActualizadoSource: Space-Track

Época: Sep 14, 2026, 10:44 UTC

1 19109U 63014EJ  26257.44760877  .00000214  00000-0  39454-1 0  9992
2 19109  86.8494  57.8269 1297301  17.1720 346.9098  8.71732809466177

Sigue WESTFORD NEEDLES en tiempo real con AllMySat

Download on the App Store